Total_Precipitation_Accumulation
0.64 0.63 0.59 0.55 0.52 0.47 0.44 0.43 0.40 0.37 0.35 0.33 0.30 0.28 0.27 0.27 0.30 0.35 0.38 0.38 0.41 0.42 0.42 0.43 0.46 0.49 0.55 0.53 0.56 0.62 0.68 0.78 0.87 0.75 0.61 0.56 0.55 0.54 0.55 0.53 0.49 0.44 0.41
0.55 0.51 0.46 0.41 0.38 0.36 0.34 0.31 0.28 0.27 0.26 0.25 0.24 0.24 0.22 0.23 0.28 0.32 0.32 0.32 0.37 0.40 0.39 0.38 0.40 0.43 0.47 0.45 0.47 0.50 0.55 0.63 0.73 0.75 0.63 0.53 0.49 0.48 0.47 0.45 0.35 0.32 0.33
0.52 0.51 0.47 0.41 0.36 0.35 0.33 0.29 0.25 0.24 0.23 0.20 0.19 0.20 0.20 0.20 0.23 0.25 0.26 0.30 0.33 0.36 0.33 0.32 0.35 0.36 0.39 0.38 0.40 0.42 0.45 0.50 0.59 0.63 0.54 0.45 0.40 0.36 0.41 0.41 0.36 0.41 0.27
0.50 0.53 0.54 0.52 0.45 0.40 0.36 0.33 0.27 0.23 0.21 0.19 0.18 0.19 0.19 0.17 0.17 0.18 0.19 0.23 0.28 0.28 0.26 0.27 0.30 0.29 0.31 0.34 0.35 0.39 0.44 0.49 0.53 0.55 0.48 0.39 0.36 0.33 0.43 0.52 0.48 0.40 0.31
0.46 0.48 0.49 0.47 0.46 0.41 0.36 0.34 0.30 0.26 0.24 0.23 0.21 0.20 0.18 0.15 0.12 0.13 0.16 0.17 0.23 0.24 0.23 0.23 0.23 0.23 0.25 0.28 0.30 0.36 0.44 0.53 0.55 0.59 0.53 0.46 0.42 0.48 0.55 0.53 0.50 0.39 0.31
0.48 0.48 0.43 0.38 0.36 0.33 0.31 0.27 0.24 0.24 0.24 0.23 0.23 0.21 0.18 0.15 0.15 0.16 0.15 0.19 0.21 0.24 0.25 0.23 0.20 0.18 0.18 0.20 0.23 0.28 0.39 0.51 0.61 0.68 0.63 0.60 0.56 0.61 0.66 0.63 0.64 0.60 0.52
0.55 0.50 0.45 0.41 0.36 0.29 0.25 0.25 0.24 0.25 0.25 0.22 0.18 0.19 0.21 0.17 0.15 0.16 0.15 0.18 0.22 0.28 0.31 0.29 0.23 0.19 0.25 0.28 0.24 0.21 0.27 0.35 0.53 0.72 0.79 0.72 0.68 0.74 0.83 0.80 0.76 0.75 0.68
0.55 0.48 0.42 0.40 0.36 0.30 0.28 0.29 0.25 0.25 0.26 0.25 0.21 0.20 0.22 0.18 0.16 0.17 0.17 0.22 0.25 0.26 0.28 0.28 0.33 0.33 0.27 0.26 0.24 0.28 0.36 0.46 0.53 0.60 0.73 0.70 0.63 0.67 0.79 0.82 0.75 0.69 0.65
0.50 0.43 0.38 0.35 0.34 0.30 0.28 0.27 0.24 0.25 0.26 0.25 0.22 0.22 0.25 0.25 0.21 0.22 0.25 0.30 0.29 0.26 0.23 0.22 0.25 0.29 0.24 0.23 0.30 0.40 0.48 0.53 0.46 0.55 0.62 0.68 0.72 0.70 0.66 0.69 0.81 0.85 0.84
0.40 0.33 0.31 0.32 0.30 0.26 0.23 0.23 0.22 0.24 0.26 0.24 0.23 0.24 0.26 0.27 0.19 0.19 0.22 0.27 0.30 0.26 0.26 0.28 0.24 0.21 0.22 0.24 0.32 0.45 0.56 0.57 0.62 0.79 0.95 1.01 0.95 0.87 0.72 0.74 0.91 0.98 0.99
0.28 0.26 0.27 0.29 0.29 0.25 0.24 0.25 0.25 0.25 0.29 0.29 0.27 0.25 0.24 0.19 0.14 0.12 0.13 0.19 0.23 0.24 0.30 0.35 0.34 0.25 0.25 0.23 0.29 0.42 0.53 0.60 0.84 1.15 1.20 1.09 0.95 0.86 0.77 0.73 0.78 0.86 0.95
0.32 0.30 0.29 0.29 0.19 0.17 0.27 0.29 0.26 0.30 0.33 0.32 0.30 0.28 0.24 0.19 0.11 0.07 0.08 0.12 0.15 0.22 0.36 0.36 0.33 0.30 0.26 0.26 0.33 0.49 0.57 0.74 1.02 1.23 1.15 0.96 0.79 0.68 0.62 0.56 0.57 0.63 0.73
0.43 0.42 0.35 0.29 0.25 0.20 0.23 0.26 0.26 0.28 0.26 0.22 0.21 0.20 0.18 0.19 0.14 0.06 0.05 0.08 0.12 0.17 0.30 0.34 0.34 0.33 0.35 0.49 0.57 0.67 0.76 0.94 1.12 1.10 0.96 0.84 0.70 0.60 0.53 0.52 0.49 0.53 0.54
0.50 0.45 0.38 0.35 0.31 0.26 0.23 0.18 0.21 0.20 0.19 0.18 0.17 0.17 0.17 0.17 0.13 0.08 0.08 0.12 0.16 0.19 0.28 0.40 0.50 0.54 0.58 0.69 0.76 0.85 0.93 1.01 0.97 0.86 0.76 0.70 0.60 0.54 0.52 0.48 0.48 0.50 0.52
0.49 0.43 0.37 0.29 0.27 0.29 0.23 0.13 0.11 0.09 0.06 0.09 0.10 0.10 0.15 0.16 0.10 0.11 0.12 0.14 0.20 0.26 0.30 0.46 0.64 0.70 0.75 0.80 0.79 0.82 0.86 0.83 0.81 0.76 0.70 0.62 0.55 0.51 0.49 0.47 0.48 0.46 0.49
0.37 0.34 0.28 0.22 0.21 0.20 0.20 0.17 0.08 0.05 0.04 0.03 0.04 0.05 0.07 0.10 0.09 0.08 0.10 0.15 0.23 0.31 0.36 0.54 0.70 0.74 0.76 0.76 0.72 0.71 0.72 0.69 0.65 0.64 0.63 0.58 0.54 0.50 0.48 0.46 0.45 0.45 0.48
0.26 0.23 0.17 0.14 0.15 0.16 0.19 0.26 0.27 0.15 0.05 0.03 0.04 0.05 0.06 0.08 0.08 0.08 0.10 0.16 0.21 0.28 0.37 0.55 0.70 0.80 0.80 0.73 0.67 0.64 0.69 0.70 0.67 0.64 0.58 0.55 0.49 0.45 0.43 0.42 0.39 0.39 0.41
0.13 0.12 0.11 0.13 0.11 0.10 0.11 0.14 0.24 0.29 0.25 0.18 0.09 0.06 0.06 0.09 0.11 0.11 0.12 0.16 0.23 0.28 0.40 0.54 0.65 0.70 0.71 0.71 0.66 0.63 0.66 0.69 0.66 0.59 0.53 0.50 0.45 0.41 0.39 0.40 0.37 0.32 0.32
0.09 0.10 0.09 0.08 0.07 0.06 0.07 0.08 0.12 0.17 0.22 0.24 0.20 0.13 0.09 0.11 0.15 0.16 0.17 0.19 0.26 0.31 0.37 0.46 0.54 0.55 0.53 0.53 0.52 0.52 0.56 0.60 0.56 0.47 0.43 0.44 0.41 0.36 0.36 0.36 0.31 0.22 0.22
0.08 0.04 0.03 0.04 0.05 0.05 0.05 0.06 0.08 0.11 0.17 0.21 0.20 0.15 0.15 0.22 0.29 0.27 0.21 0.19 0.19 0.23 0.30 0.39 0.45 0.43 0.41 0.39 0.37 0.36 0.39 0.42 0.40 0.37 0.35 0.34 0.34 0.33 0.31 0.28 0.26 0.23 0.22
0.04 0.03 0.01 0.02 0.04 0.05 0.04 0.04 0.05 0.07 0.11 0.16 0.13 0.10 0.16 0.23 0.31 0.32 0.30 0.27 0.25 0.24 0.26 0.28 0.32 0.36 0.35 0.33 0.30 0.27 0.28 0.29 0.30 0.32 0.32 0.32 0.31 0.30 0.25 0.21 0.18 0.15 0.15
0.02 0.02 0.02 0.03 0.03 0.03 0.02 0.01 0.02 0.04 0.08 0.11 0.12 0.10 0.15 0.19 0.24 0.26 0.31 0.35 0.35 0.33 0.30 0.28 0.28 0.31 0.34 0.34 0.28 0.25 0.25 0.26 0.28 0.30 0.32 0.31 0.28 0.23 0.19 0.16 0.13 0.11 0.11
0.01 0.01 0.01 0.01 0.01 0.00 0.00 0.01 0.01 0.02 0.05 0.07 0.09 0.11 0.13 0.18 0.21 0.23 0.28 0.34 0.37 0.37 0.33 0.30 0.30 0.33 0.34 0.35 0.32 0.26 0.23 0.22 0.23 0.25 0.30 0.31 0.27 0.22 0.17 0.14 0.11 0.11 0.10
0.00 0.00 0.00 0.00 0.00 0.00 0.00 0.01 0.01 0.01 0.02 0.03 0.05 0.09 0.12 0.17 0.18 0.21 0.26 0.31 0.35 0.37 0.36 0.34 0.33 0.34 0.34 0.34 0.30 0.21 0.17 0.18 0.18 0.19 0.24 0.27 0.24 0.19 0.15 0.14 0.13 0.13 0.13
0.00 0.00 0.00 0.00 0.00 0.00 0.00 0.01 0.01 0.01 0.01 0.02 0.03 0.05 0.07 0.10 0.13 0.15 0.20 0.25 0.29 0.32 0.31 0.31 0.31 0.28 0.26 0.25 0.23 0.18 0.17 0.17 0.17 0.18 0.20 0.22 0.21 0.19 0.18 0.18 0.16 0.14 0.14
0.00 0.00 0.00 0.00 0.00 0.00 0.01 0.01 0.02 0.02 0.03 0.03 0.03 0.03 0.04 0.05 0.08 0.11 0.13 0.15 0.19 0.23 0.25 0.26 0.24 0.23 0.20 0.17 0.17 0.17 0.16 0.13 0.12 0.14 0.17 0.21 0.20 0.19 0.20 0.20 0.17 0.16 0.15